KT5AL Weather Reports


Display with metric or nautical units.
time (UTC)temp
F
wind
direction
speed
MPH
gust
MPH
rain 1hr
in
rain 24hr
in
rain mn
in
humidity
%
barometer
mb
20260905032004 87 135 5.0 7.0 0.00 0.00 0.00 51 1010.7
20260905031507 87 157 6.0 10.0 0.00 0.00 0.00 51 1010.7
20260905030509 88 112 7.0 10.0 0.00 0.00 0.00 51 1010.7
20260905030005 88 135 6.0 8.0 0.00 0.00 0.00 51 1010.7
20260905024504 88 135 6.0 9.0 0.00 0.00 0.00 50 1010.0
20260905021505 89 112 7.0 11.0 0.00 0.00 0.00 50 1009.7
20260905020008 90 157 6.0 9.0 0.00 0.00 0.00 49 1009.7
20260905015008 90 157 8.0 12.0 0.00 0.00 0.00 49 1009.0
20260905014008 90 157 8.0 13.0 0.00 0.00 0.00 49 1009.0
20260905011506 91 135 7.0 9.0 0.00 0.00 0.00 47 1008.3
20260905005506 92 112 6.0 10.0 0.00 0.00 0.00 45 1008.0
20260905005003 92 135 8.0 11.0 0.00 0.00 0.00 44 1008.0
20260905004506 93 112 9.0 15.0 0.00 0.00 0.00 43 1007.7
20260905002506 94 157 9.0 12.0 0.00 0.00 0.00 40 1007.0
20260905002003 95 135 9.0 11.0 0.00 0.00 0.00 39 1007.0
20260905001506 95 157 5.0 7.0 0.00 0.00 0.00 39 1007.0
20260905001008 95 112 8.0 12.0 0.00 0.00 0.00 38 1007.0
20260905000531 95 157 8.0 13.0 0.00 0.00 0.00 38 1006.6
20260905000008 96 112 8.0 13.0 0.00 0.00 0.00 39 1006.6
20260904235506 96 157 9.0 13.0 0.00 0.00 0.00 39 1006.6
20260904234506 96 135 10.0 14.0 0.00 0.00 0.00 39 1006.6
20260904232506 96 157 9.0 11.0 0.00 0.00 0.00 39 1006.3
20260904232004 97 180 13.0 15.0 0.00 0.00 0.00 38 1006.3
20260904231005 97 112 9.0 13.0 0.00 0.00 0.00 38 1006.3
20260904230507 97 157 10.0 14.0 0.00 0.00 0.00 39 1006.3
20260904225004 98 157 11.0 13.0 0.00 0.00 0.00 37 1006.3
20260904224507 97 157 10.0 12.0 0.00 0.00 0.00 38 1006.0
20260904222508 97 135 8.0 10.0 0.00 0.00 0.00 39 1006.0
20260904221006 98 157 6.0 8.0 0.00 0.00 0.00 38 1006.3
20260904220032 97 135 11.0 14.0 0.00 0.00 0.00 37 1006.6
20260904215508 97 157 9.0 15.0 0.00 0.00 0.00 38 1006.6
20260904215005 97 157 9.0 12.0 0.00 0.00 0.00 38 1006.6
20260904214005 96 135 10.0 12.0 0.00 0.00 0.00 39 1006.6
20260904213508 97 157 12.0 17.0 0.00 0.00 0.00 39 1006.6
20260904212508 97 112 11.0 16.0 0.00 0.00 0.00 40 1007.0
20260904210006 96 157 9.0 13.0 0.00 0.00 0.00 41 1007.3
20260904204504 97 112 9.0 14.0 0.00 0.00 0.00 42 1007.3
20260904203504 97 157 12.0 14.0 0.00 0.00 0.00 41 1007.3
20260904203007 97 157 15.0 20.0 0.00 0.00 0.00 39 1007.3
20260904202008 96 157 16.0 19.0 0.00 0.00 0.00 41 1007.7
20260904201505 96 180 9.0 17.0 0.00 0.00 0.00 41 1008.0
20260904201008 96 180 16.0 21.0 0.00 0.00 0.00 40 1008.0
20260904195537 95 180 13.0 15.0 0.00 0.00 0.00 40 1008.3
20260904194505 95 157 21.0 23.0 0.00 0.00 0.00 40 1008.3
20260904192505 95 157 10.0 14.0 0.00 0.00 0.00 41 1008.7
20260904191008 95 135 4.0 7.0 0.00 0.00 0.00 44 1008.7
20260904190505 94 135 11.0 15.0 0.00 0.00 0.00 44 1009.0
20260904185008 94 157 18.0 24.0 0.00 0.00 0.00 44 1009.0
20260904183505 94 135 12.0 17.0 0.00 0.00 0.00 43 1010.0
20260904182504 92 157 14.0 20.0 0.00 0.00 0.00 44 1010.0
20260904182008 92 180 14.0 17.0 0.00 0.00 0.00 44 1010.0
20260904181010 92 157 12.0 15.0 0.00 0.00 0.00 45 1010.0
20260904175505 91 202 9.0 11.0 0.00 0.00 0.00 44 1010.4
20260904173008 91 180 10.0 17.0 0.00 0.00 0.00 49 1010.7
20260904172505 90 180 16.0 20.0 0.00 0.00 0.00 51 1011.0
20260904171505 90 157 11.0 13.0 0.00 0.00 0.00 52 1010.7
20260904171008 91 202 11.0 15.0 0.00 0.00 0.00 52 1010.7
20260904164506 89 180 13.0 28.0 0.00 0.00 0.00 56 1011.4
20260904162507 87 157 12.0 15.0 0.00 0.00 0.00 62 1011.7
20260904162004 87 180 10.0 13.0 0.00 0.00 0.00 61 1011.7
20260904160511 87 180 15.0 19.0 0.00 0.00 0.00 63 1011.7
20260904160005 86 180 12.0 18.0 0.00 0.00 0.00 63 1011.7
20260904155511 86 157 12.0 17.0 0.00 0.00 0.00 65 1012.4
20260904154530 84 180 15.0 18.0 0.00 0.00 0.00 68 1012.7
20260904153009 84 180 13.0 16.0 0.00 0.00 0.00 73 1013.1
20260904152004 83 157 15.0 18.0 0.00 0.00 0.00 73 1013.1
20260904151005 83 157 10.0 13.0 0.00 0.00 0.00 78 1013.1
20260904150507 83 180 10.0 14.0 0.00 0.00 0.00 79 1012.7
20260904150006 84 157 9.0 13.0 0.00 0.00 0.00 79 1012.7
20260904144503 84 180 11.0 15.0 0.00 0.00 0.00 80 1012.4
20260904144006 84 180 12.0 16.0 0.00 0.00 0.00 80 1012.4
20260904143503 83 180 12.0 15.0 0.00 0.00 0.00 81 1012.4
20260904143006 83 157 12.0 15.0 0.00 0.00 0.00 83 1012.4
20260904142007 82 180 13.0 15.0 0.00 0.00 0.00 87 1012.7
20260904135504 80 157 11.0 13.0 0.00 0.00 0.00 93 1013.4
20260904135008 80 157 10.0 12.0 0.00 0.00 0.00 93 1013.4
20260904133004 79 135 7.0 11.0 0.00 0.00 0.00 97 1013.8
20260904132508 78 157 8.0 10.0 0.00 0.00 0.00 97 1013.8
20260904131508 78 157 8.0 11.0 0.00 0.00 0.00 97 1013.4
20260904131005 78 157 8.0 12.0 0.00 0.00 0.00 97 1013.4
20260904130005 78 157 5.0 6.0 0.00 0.00 0.00 97 1013.4
20260904125508 78 157 5.0 8.0 0.00 0.00 0.00 98 1013.4
20260904124006 78 157 6.0 8.0 0.00 0.00 0.00 97 1013.4
20260904123007 78 157 5.0 6.0 0.00 0.00 0.00 97 1013.4
20260904122504 78 135 5.0 7.0 0.00 0.00 0.00 98 1013.4
20260904122007 78 135 4.0 6.0 0.00 0.00 0.00 97 1013.4
20260904121504 78 135 5.0 7.0 0.00 0.00 0.00 97 1013.4
20260904115008 78 157 6.0 8.0 0.00 0.00 0.00 97 1013.1
20260904113532 78 157 8.0 10.0 0.00 0.00 0.00 97 1013.1
20260904112009 78 157 6.0 7.0 0.00 0.00 0.00 97 1013.1
20260904111506 78 157 6.0 8.0 0.00 0.00 0.00 97 1013.1
20260904110507 78 157 6.0 8.0 0.00 0.00 0.00 96 1013.1
20260904105508 78 180 2.0 3.0 0.00 0.00 0.00 95 1013.1
20260904103007 78 135 5.0 7.0 0.00 0.00 0.00 95 1013.1
20260904101504 78 157 6.0 7.0 0.00 0.00 0.00 94 1012.7
20260904094009 79 157 8.0 10.0 0.00 0.00 0.00 92 1012.4
20260904093035 79 180 10.0 13.0 0.00 0.00 0.00 92 1012.4
20260904092506 79 157 9.0 11.0 0.00 0.00 0.00 92 1012.4
20260904091005 79 157 10.0 12.0 0.00 0.00 0.00 91 1012.4
20260904090503 78 157 8.0 10.0 0.00 0.00 0.00 92 1012.4
20260904090006 79 157 6.0 9.0 0.00 0.00 0.00 90 1012.4
20260904085508 78 157 7.0 9.0 0.00 0.00 0.00 91 1012.7
20260904081507 79 157 7.0 9.0 0.00 0.00 0.00 88 1012.4
20260904074008 79 157 7.0 11.0 0.00 0.00 0.00 86 1012.4
20260904072005 79 180 8.0 10.0 0.00 0.00 0.00 84 1012.4
20260904070507 79 157 4.0 7.0 0.00 0.00 0.00 83 1012.4
20260904070006 79 157 8.0 10.0 0.00 0.00 0.00 82 1012.4
20260904064006 79 157 7.0 9.0 0.00 0.00 0.00 79 1012.7
20260904063503 79 157 6.0 9.0 0.00 0.00 0.00 79 1012.7
20260904054505 79 157 7.0 8.0 0.00 0.00 0.00 76 1012.7
20260904053002 79 157 7.0 9.0 0.00 0.00 0.00 76 1012.7
20260904052029 79 157 6.0 9.0 0.00 0.00 0.00 76 1012.4
20260904051507 79 157 4.0 5.0 0.00 0.00 0.00 76 1012.4
20260904050004 80 157 8.0 12.0 0.00 0.00 0.00 76 1012.4
20260904043504 80 112 6.0 9.0 0.00 0.00 0.00 75 1012.4
20260904041504 80 135 7.0 10.0 0.00 0.00 0.00 73 1012.1
20260904040006 81 157 6.0 8.0 0.00 0.00 0.00 72 1012.1
20260904034009 81 112 6.0 9.0 0.00 0.00 0.00 71 1012.1
20260904033004 81 157 10.0 14.0 0.00 0.00 0.00 72 1012.1